User: anonymous   Login
Location: Unspecified
(0.0000°N, 0.0000°E)
Time: 00:47:44
(UTC+00:00)
Language:

STARLINK-34077 - Orbit

View from above orbital plane
View from above orbital plane
View from above satellite
View from above satellite

Ground track
Ground track

The orbit is defined by the following mean orbital elements,

1 64009U          26145.35937825 +.00000000 +00000-0 +13783-2 0 00006
2 64009  42.9991 284.7291 0001499 160.8268 199.2640 15.27631697    00
Epoch (UTC): 25 May 2026 08:37:30
Eccentricity: 0.0001499
inclination: 42.9991°
perigee height: 482 km
apogee height: 484 km
right ascension of ascending node: 284.7291°
argument of perigee: 160.8268°
revolutions per day: 15.27631697
mean anomaly at epoch: 199.2640°

The dashed part of the orbit path shows where the satellite is in the earth's shadow,  

DLR